www.pogodaiklimat.ru

Погода и климат >> Архив погоды >> Таиланд >> Lop Buri


ПОГОДА в Lop Buri

  • Прогноз погоды в Lop Buri
  • Монитор погоды в Lop Buri
  • Климат города

АРХИВ ПОГОДЫ в Lop Buri

Время (UTC), дата Ветер
(напр.,м/с)
 
Видим.   Явления Облачность Т
(С)
Тd
(С)
f
(%)
Тe
(С)
Тes
(С)
Комфортность P
(гПа)
Po
(гПа)
Тmin
(С)
Tmax
(С)
R
(мм)
S
(см)
00 19.03 штиль 0 8000 м дымка 3/0
[Ac lent Cs]
+26.5 +24.3 88 +37 +38 очень
душно
1012.2 1010.9 +26.0
03 19.03 Ю 1 9000 м мгла 6/6 600 м
[Cu med, cong Ac lent Cs]
+32.5 +24.9 64 +46 +52 опасность
перегрева
1013.7 1012.4
06 19.03 ЮЗ 5 9000 м мгла 6/5 600 м
[Cu med, cong Ac lent Cs]
+35.1 +23.0 50 +45 +50 опасность
перегрева
1011.2 1009.9
09 19.03 ЮВ 5 9000 м мгла 5/4 600 м
[Cu med, cong Ac lent Cs]
+36.3 +21.2 42 +44 +46 опасность
перегрева
1008.1 1006.8
12 19.03 Ю 1 8000 м мгла 3/3 600 м
[Cu med, cong Ac lent Cs]
+32.6 +23.7 60 +44 +44 опасность
перегрева
1009.1 1007.8 +36.8
15 19.03 ЮВ 3 8000 м дымка 3/0
[Cs]
+29.7 +23.6 70 +41 +41 опасность
перегрева
1011.7 1010.4
18 19.03 Ю 1 7000 м дымка 3/0
[Cs]
+27.6 +24.6 84 +39 +39 очень
душно
1011.4 1010.1
21 19.03 Ю 2 7000 м дымка 3/0
[Cs]
+26.7 +24.1 86 +37 +37 очень
душно
1010.2 1008.9
00 20.03 ЮВ 1 8000 м дымка 3/0
[Ac lent Cs]
+26.5 +24.5 89 +37 +38 очень
душно
1011.5 1010.2 +26.0
03 20.03 ЮВ 6 9000 м мгла 4/1 600 м
[Cu hum Ac lent Cs]
+31.9 +23.9 63 +44 +48 опасность
перегрева
1012.8 1011.5
06 20.03 Ю 3 12 км 4/3 600 м
[Cu med, cong Cs]
+35.4 +20.4 42 +42 +53 опасность
перегрева
1009.8 1008.5
09 20.03 Ю 3 8000 м мгла 8/4 600 м
[Sc Ac lent Cs]
+35.5 +21.8 45 +44 +46 опасность
перегрева
1007.0 1005.7
12 20.03 Ю 2 8000 м мгла 4/0
[Cs]
+31.0 +22.7 61 +41 +41 опасность
перегрева
1008.5 1007.2 +37.7
15 20.03 ЮВ 3 8000 м дымка 3/0
[Cs]
+28.6 +23.0 72 +38 +38 очень
душно
1010.9 1009.6
18 20.03 ЮВ 2 7000 м дымка 3/0
[Ci fib]
+26.9 +24.1 85 +37 +37 очень
душно
1011.0 1009.7
21 20.03 ЮВ 3 7000 м дымка 3/0
[Ci fib]
+26.5 +24.6 89 +37 +37 очень
душно
1009.4 1008.1
00 21.03 ЮВ 3 5000 м дымка 8/0
[Ac lent Cs]
+26.1 +24.5 91 +37 +37 очень
душно
1011.3 1009.9 +26.1
03 21.03 Ю 2 10 км 8/3 600 м
[Cu med, cong As trans Cs]
+30.5 +24.0 68 +42 +48 опасность
перегрева
1012.5 1011.2
06 21.03 Ю 2 10 км 8/3 600 м
[Cu med, cong As trans Cs]
+35.0 +21.1 44 +42 +51 опасность
перегрева
1009.8 1008.5
09 21.03 В 4 12 км 8/3 600 м
[Cu med, cong As trans Cs]
+36.0 +18.5 36 +40 +42 очень
душно
1006.7 1005.4
12 21.03 штиль 0 8000 м мгла 4/3 600 м
[Cu med, cong Cs]
+32.6 +20.7 50 +40 +40 очень
душно
1006.9 1005.7 +36.7
15 21.03 штиль 0 8000 м мгла 8/3 600 м
[Cu med, cong As trans Cs]
+30.1 +18.5 50 +35 +35 очень
душно
1009.0 1007.7
18 21.03 ЮВ 1 7000 м дымка 5/3 600 м
[Cu hum As trans Cs]
+28.1 +22.8 73 +37 +37 очень
душно
1008.9 1007.6
21 21.03 ЮВ 2 7000 м дымка 3/0
[Cs]
+27.4 +23.8 81 +38 +38 очень
душно
1008.0 1006.7
00 22.03 штиль 0 7000 м дымка 6/3 600 м
[Cu hum As trans Cs]
+27.0 +24.3 85 +38 +38 очень
душно
1009.8 1008.5 +26.7
03 22.03 ЮВ 2 8000 м дымка 6/5 600 м
[Cu med, cong As op Cs]
+31.0 +24.6 69 +44 +50 опасность
перегрева
1011.1 1009.8
06 22.03 Ю 1 8000 м мгла 5/3 600 м
[Cu med, cong As op Cs]
+35.8 +22.3 46 +45 +59 опасность
перегрева
1008.4 1007.1
09 22.03 Ю 2 8000 м мгла 3/3 600 м
[Cu med, cong Ac lent Cs]
+37.0 +18.7 34 +41 +46 опасность
перегрева
1005.4 1004.2
12 22.03 Ю 1 8000 м мгла 3/1 600 м
[Cu med, cong Ac lent Cs]
+33.5 +23.4 56 +44 +44 опасность
перегрева
1006.0 1004.8 +37.7
15 22.03 штиль 0 7000 м дымка 3/0
[Cs]
+30.2 +23.4 67 +41 +41 опасность
перегрева
1007.9 1006.6
18 22.03 Ю 2 7000 м дымка 3/0
[Cs]
+28.3 +23.5 75 +38 +38 очень
душно
1008.6 1007.3
21 22.03 штиль 0 7000 м дымка 3/0
[Cs]
+27.3 +24.1 83 +38 +38 очень
душно
1007.9 1006.6
00 23.03 Ю 2 6000 м дымка 5/3 600 м
[Cu med, cong As op Cs]
+27.2 +24.5 85 +38 +39 очень
душно
1009.7 1008.3 +26.9
03 23.03 ЮВ 6 8000 м мгла 6/3 600 м
[Cu med, cong As op Cs]
+32.4 +23.1 58 +43 +46 опасность
перегрева
1011.6 1010.3
06 23.03 ЮЗ 5 9000 м мгла 6/4 600 м
[Cu med, cong As op Cs]
+36.4 +23.1 46 +46 +51 опасность
перегрева
1009.3 1008.0
09 23.03 Ю 2 9000 м мгла 6/4 600 м
[Cu med, cong Ac lent Cs]
+37.4 +22.6 43 +47 +50 опасность
перегрева
1006.1 1004.9
12 23.03 Ю 2 8000 м мгла 8/3 600 м
[Cu med, cong Ac lent Cs]
+33.9 +23.2 54 +44 +44 опасность
перегрева
1007.3 1006.0 +37.9
15 23.03 ЮВ 3 8000 м дымка 4/0
[Cs]
+30.4 +23.6 67 +41 +41 опасность
перегрева
1009.8 1008.5
18 23.03 ЮВ 1 7000 м дымка 3/0
[Ci fib]
+28.9 +24.3 76 +40 +40 очень
душно
1009.6 1008.3
21 23.03 Ю 2 7000 м дымка 3/0
[Ci fib]
+27.4 +25.1 87 +39 +39 очень
душно
1008.8 1007.5
00 24.03 В 1 5000 м дымка 8/3 600 м
[Cu hum As op Cs]
+27.5 +24.2 82 +38 +39 очень
душно
1010.2 1008.9 +26.9
03 24.03 В 3 10 км 8/1 600 м
[Cu hum As trans Cs]
+32.9 +22.4 54 +42 +49 опасность
перегрева
1012.4 1011.1
06 24.03 В 2 10 км 8/3 600 м
[Cu med, cong As trans Cs]
+34.2 +24.4 57 +47 +56 опасность
перегрева
1010.1 1008.8
09 24.03 В 4 9000 м мгла {гроза, дождь} 9/6 600 м
[Cu Sc As op Cs]
+32.3 +24.0 62 +44 +45 опасность
перегрева
1007.9 1006.6 0.0
12 24.03 ЮВ 2 8000 м мгла {гроза, дождь} 8/3 600 м
[Cu med, cong As trans Cs]
+30.6 +23.0 64 +41 +41 опасность
перегрева
1009.0 1007.7 +35.3 0.0
15 24.03 ЮВ 1 7000 м дымка 8/1 600 м
[Cu hum As trans Cs]
+28.4 +22.5 70 +37 +37 очень
душно
1011.3 1010.0
18 24.03 штиль 0 7000 м дымка 3/0
[As op Cs]
+26.7 +22.6 78 +35 +35 очень
душно
1011.4 1010.1
21 24.03 штиль 0 7000 м дымка 3/0
[Ac lent Cs]
+26.3 +22.9 82 +35 +35 очень
душно
1010.3 1008.9
00 25.03 штиль 0 8000 м дымка 9/6 600 м
[Cu Sc As op Cs]
+26.8 +23.4 82 +36 +37 очень
душно
1011.7 1010.4 +26.0
03 25.03 штиль 0 8000 м дымка 9/6 600 м
[Cu Sc As op Cs]
+26.8 +23.4 82 +36 +41 очень
душно
1011.7 1010.4 +26.0
06 25.03 Ю 2 9000 м мгла 6/5 600 м
[Cu med, cong Ac lent Cs]
+36.4 +23.6 48 +47 +57 опасность
перегрева
1010.2 1009.0
09 25.03 Ю 4 9000 м мгла 5/3 600 м
[Cu med, cong As op Cs]
+36.8 +21.8 42 +45 +48 опасность
перегрева
1006.9 1005.7
12 25.03 Ю 5 8000 м мгла 5/3 600 м
[Cu med, cong As op Cs]
+34.0 +23.4 54 +45 +45 опасность
перегрева
1008.3 1007.0 +37.5
15 25.03 ЮВ 3 7000 м мгла 3/0
[Cs]
+30.6 +22.5 62 +40 +40 очень
душно
1011.5 1010.2
18 25.03 Ю 2 7000 м дымка 3/0
[Cs]
+28.7 +23.0 71 +38 +38 очень
душно
1010.9 1009.6
21 25.03 Ю 1 7000 м дымка 3/0
[Cs]
+27.2 +24.0 83 +38 +38 очень
душно
1009.9 1008.6

 

Местоположение метеостанции Lop Buri (Таиланд): широта 14.80 долгота 100.61 высота над уровнем моря 11 м.

В архиве по умолчанию представлена погода в Lop Buri за последнюю неделю. Архивные данные за месяц целиком и за предыдущие месяцы, начиная с января 2011 года, Вы можете получить, выбрав интересующий диапазон дат из раскрывающегося списка и нажав кнопку "Ввод!".

Внимание! Время в таблицах - всемирное. Для получения местного времени необходимо прибавить поправку, которая в Lop Buri равна 7 ч.

Смотрите также архив погоды в соседних городах и на ближайших метеорологических станциях:

Погода в Ayutthaya (Таиланд) (33 км)
Погода в Laemchabang (Таиланд) (43 км)
Погода в Saraburi (Таиланд) (46 км)
Погода в Chainat Agromet (Таиланд) (60 км)
Погода в Takfa Agromet (Таиланд) (62 км)
Погода в Suphan Buri (Таиланд) (63 км)
Погода в Pathumthani (Таиланд) (78 км)
Погода в Pakchong Agromet (Таиланд) (79 км)
Погода в Bua Chum (Таиланд) (81 км)
Погода в Uthai Thani (Таиланд) (89 км)

Пояснения к столбцам:

Ветер - указаны скорость ветра в м/с - средняя за 10 мин, порывы в срок и между сроками (в фигурных скобках) и направление, откуда дует ветер: С - северный, СВ - северо-восточный, В - восточный, ЮВ - юго-восточный, Ю - южный, ЮЗ - юго-западный, З - западный, СЗ - северо-западный.
Видимость - горизонтальная дальность видимости в метрах или километрах. При видимости от 1 до 10 км при отсутствии осадков обычно наблюдается дымка, при ухудшении видимости до 1 км и менее - туман. В сухую погоду видимость может ухудшаться дымом, пылью или мглою.
Явления - указаны атмосферные явления, наблюдавшиеся в срок или в последний час перед сроком; фигурными скобками обозначены явления, наблюдавшиеся между сроками (за 1-3 часа до срока); квадратными скобками обозначены град или гололедные отложения с указанием их диаметра в мм.
Облачность - указаны через наклонную черту общая и нижняя облачность в баллах и высота нижней границы облаков в метрах; квадратными скобками обозначены формы облаков: Ci - перистые, Cs - перисто-слоистые, Cc - перисто-кучевые, Ac - высококучевые, As - высокослоистые, Sc - слоисто-кучевые, Ns - слоисто-дождевые, Cu - кучевые, Cb - кучево-дождевые. Подробнее классификацию облаков см. в Атласе облаков (PDF).
T - Температура воздуха - температура, измеренная на высоте 2 м над землей.
Td - Температура точки росы - температура, при понижении до которой содержащийся в воздухе водяной пар достигнет насыщения.
f - Относительная влажность воздуха - влажноcть воздуха, измеренная на высоте 2 м над землей.
Te - Эффективная температура - температура, которую ощущает одетый по сезону человек в тени. Характеристика душности погоды. При расчете учитывается влияние влажности воздуха и скорости ветра на теплоощущения человека.
Tes - Эффективная температура на солнце - температура, которую ощущает человек, с поправкой на солнечный нагрев. Характеристика знойности погоды. Зависит от высоты солнца над горизонтом, облачности и скорости ветра. Ночью, в пасмурную погоду, а также при ветре 12 м/с и более поправка равна нулю.
P - Атмосферное давление - приведенное к уровню моря атмосферное давление.
Po - Атмосферное давление - измеренное на уровне метеостанции атмосферное давление.
Tmin - Минимальная температура - минимум температуры воздуха на высоте 2 м над землей.
Tmax - Максимальная температура - максимум температуры воздуха на высоте 2 м над землей.
R - Количество осадков - Количество выпавших осадков, мм. При наведении курсора мыши на число - период времени, за который выпало указанное количество осадков.
S - Снежный покров - Высота снежного покрова, см. При наведении курсора мыши на число - состояние снежного покрова и степень покрытия местности в баллах.